SL-8 DEB, 13517

Orbit data source: Space-Track

SL-8 DEB, 13517 is space debris in LEO originally from a launch on Mon, 15 Mar 1965 UTC launched from the Tyuratam Missile And Space Complex (TTMTR). Debris objects in space refer to the collection of defunct objects orbiting the Earth. Examples of debris include non-operational satellites, rocket bodies, and fragments generated from explosions, collisions, or faulty payload assembly.

Loading next visibility...
Identifier
13517, 1965-020FF
Orbit
LEO
Country
Flag of CISCIS
Related business
Manufacturer
Unknown
Mission
Spacecraft
Bus & Motor
Unknown
Mass
Unknown
Launch date (UTC)
1965-03-15 (61 years ago)
Launch vehicle
Unknown
Launch site
Tyuratam Missile And Space Complex (TTMTR)
Object type
Payload
Rocket body
Debris
Shape & HBR
Unknown shape, 0.1 m
Radar Cross Section
Small (<0.1 m²)

Expand to show TLE details & history
Last TLE update: 2 days ago

TLE from 2 days ago
0 SL-8 DEB
1 13517U 65020FF  26173.46279096  .00001055  00000-0  88292-3 0  9995
2 13517  55.5690 297.2066 0526087 143.2745 333.2257 13.44043588136785
Epoch: 2026-06-22T11:06Z
TLE epoch observation values (Epoch: 2026-06-22T11:06:25.138Z)
Latitude
49.22883°
Longitude
-12.29638°
Altitude
753.744 km
Speed
7.655 km/s
True Right ascension
04h 19m 49s
True Declination
49° 03' 31"
Sunlit
Object was in daylight at epoch
Visualization orbit readout
Latitude
Unknown
Longitude
Unknown
Altitude
Unknown
Speed
Unknown
Apparent Right ascension
Unknown
Apparent Declination
Unknown
Sunlit
N/A
Visualization observer readout
Local Sidereal Time
11:33:28
Azimuth
Unknown
Elevation
Unknown
Doppler factor
Unknown
Orbital elements
Apogee altitude
1,487.244 km
Perigee altitude
701.031 km
Semi-major axis
7,472.275 km
Eccentricity
0.05261
Inclination
55.569°
RAAN
297.2066°
Arg. of periapsis
143.2745°
True anomaly
330.34229°
Mean anomaly
333.2257°
Eccentric anomaly
331.80137°
Mean motion
3.36019 °/min
Orbital period
107.14 mins
BSTAR
0.00088292
Loading maneuver chart data...
Computing Atmospheric mass density...
Loading historical data...
Loading historical data...
Loading historical data...
Loading historical data...
Loading historical data...
Loading historical data...
Loading historical data...

Documentation

Showing up to 5 results
|